This demonstration page uses our WeatherBlox Daily Observations layout. Learn more.

Left ArrowRight Arrow

39.01783, -85.05884

Hourly Observations for April 4, 2020

Temp ( °F °C ) Dew Point ( °F °C ) Humidity (%) Winds ( mph kmh ) Pressure ( in mb ) Visibility ( mi km ) Precip ( " mm )
12:52 am 00:52 Mostly Clear 55 12.8 37 2.8 51 51 N N/A 30.00 1016 10 16 N/A
1:52 am 01:52 Mostly Clear 53 11.7 37 2.8 55 55 N N/A 29.99 1016 10 16 N/A
2:52 am 02:52 Partly Cloudy 54 12.2 37 2.8 53 53 N N/A 29.99 1016 10 16 N/A
3:52 am 03:52 Mostly Clear 53 11.7 39 3.9 59 59 NE 5 7 29.98 1015 9 14 N/A
4:52 am 04:52 Mostly Clear 52 11.1 38 3.3 59 59 N N/A 29.99 1016 10 16 N/A
5:52 am 05:52 Partly Cloudy 47 8.3 38 3.3 71 71 N N/A 30.00 1016 9 14 N/A
6:52 am 06:52 Cloudy 46 7.8 39 3.9 77 77 N N/A 30.01 1016 9 14 N/A
7:52 am 07:52 Cloudy 50 10 39 3.9 66 66 S 5 7 30.02 1017 7 11 N/A
8:52 am 08:52 Cloudy 52 11.1 40 4.4 64 64 SSW 6 9 30.04 1017 7 11 N/A
9:52 am 09:52 Cloudy 54 12.2 40 4.4 59 59 SSW 6 9 30.05 1018 8 13 N/A
10:52 am 10:52 Cloudy 58 14.4 40 4.4 51 51 S 7 11 30.06 1018 10 16 N/A
11:52 am 11:52 Mostly Cloudy 63 17.2 41 5 45 45 S 8 13 30.04 1017 10 16 N/A
12:52 pm 12:52 Mostly Cloudy 66 18.9 40 4.4 39 39 SW 7 11 30.03 1017 10 16 N/A
1:52 pm 13:52 Partly Cloudy 69 20.6 41 5 36 36 N N/A 30.00 1016 10 16 N/A
2:52 pm 14:52 Partly Cloudy 71 21.7 43 6.1 36 36 SW 5 7 29.98 1015 10 16 N/A
3:52 pm 15:52 Mostly Cloudy 72 22.2 43 6.1 35 35 VRB 3 6 29.95 1014 10 16 N/A
4:52 pm 16:52 Mostly Cloudy 71 21.7 44 6.7 38 38 VRB 6 9 29.94 1014 10 16 N/A
5:52 pm 17:52 Mostly Cloudy 68 20 46 7.8 45 45 W 6 9 29.95 1014 10 16 N/A
6:52 pm 18:52 Cloudy 68 20 47 8.3 47 47 NNW 8 13 29.96 1015 10 16 0.00 0.00
7:52 pm 19:52 Cloudy 66 18.9 49 9.4 54 54 N 10 17 29.97 1015 9 14 N/A
8:52 pm 20:52 Mostly Cloudy 64 17.8 49 9.4 58 58 NNW 8 13 29.98 1015 10 16 N/A
9:52 pm 21:52 Mostly Cloudy 60 15.6 50 10 70 70 NNW 13 20 30.01 1016 9 14 N/A
10:52 pm 22:52 Mostly Cloudy 57 13.9 49 9.4 74 74 NNW 9 15 30.02 1017 8 13 N/A
11:52 pm 23:52 Mostly Cloudy 55 12.8 48 8.9 77 77 NNW 12 19 30.02 1017 9 14 N/A

Powered by AerisWeather